{"data":{"norad_id":59574,"intl_designator":"2024-076L","name":"STARLINK-31751","alt_names":[],"object_type":"PAYLOAD","status":"ACTIVE","operator":null,"country":"US","launch_date":"2024-04-23","launch_site_code":"AFETR","launch_vehicle":null,"mission":null,"orbit_class":"UNKNOWN","rcs_meters":null,"size_class":null,"mass_kg":null,"dimensions":null,"purposes":["comms"],"wikipedia_slug":null,"has_3d_model":false,"image_url":null,"decayed_at":null,"tle_current":{"epoch":"2026-05-24T19:55:04.797696Z","epoch_age_seconds":92978,"freshness":"FRESH","line1":"1 59574U 24076L   26144.82991664  .00000988  00000+0  45432-4 0  9997","line2":"2 59574  43.0013 299.3314 0001623 265.2467  94.8199 15.27575322118142","mean_motion":15.27575322,"eccentricity":0.0001623,"inclination_deg":43.0013,"raan_deg":299.3314,"arg_perigee_deg":265.2467,"mean_anomaly_deg":94.8199,"bstar":4.5432e-5,"rev_number":11814,"period_min":94.267037393263,"perigee_km":481.94953091347,"apogee_km":484.17667646713,"semimajor_km":6861.2001036903,"source":"CELESTRAK","updated_at":"2026-05-25T13:38:18.986590Z"}}}